Flag for Bosnia-Herzegovina Weather past 2 weeks in Mostar, Bosnia-Herzegovina

Now
55 °F

Passing clouds.


Feels Like: 51 °F
Forecast: 31 / 52 °F
Wind: 20 mph from North

Location: Mostar

Current Time: Dec 21, 2014 at 11:15:40 AM

Latest Report: Dec 21, 2014 at 10:00 AM


Visibility: N/A

Pressure: 30.24 "Hg

Humidity: 31%

Dew point: 25 °F

Location of MostarLocation

Historic Weather in Mostar — Graph

°F

Mostar temperature yesterday

Maximum temperature yesterday: 57 °F (at 2:00 PM)
Minimum temperature yesterday: 36 °F (at 12:00 AM)
Average temperature yesterday: 43 °F

Past Weeks' High & Low Weather Summary

 TemperatureHumidityPressure
High59 °F (Dec 8, 12:00 PM)100% (Dec 6, 7:00 PM)30.30 "Hg (Dec 6, 7:00 PM)
Low28 °F (Dec 13, 5:00 AM)31% (Dec 12, 2:00 PM)29.74 "Hg (Dec 9, 6:00 AM)
Average46 °F78%30.03 "Hg
* Reported Dec 6 10:00 AM — Dec 21 10:00 AM, Mostar, Weather by CustomWeather, © 2014

Note: Actual official high and low records may vary slightly from our data, if they occured in-between our weather recording intervals... More about our weather records

Advertising

Mostar weather history for previous 24 hours

 ConditionsComfort  
Time TempWeatherWind HumidityBarometerVisibility
10:00 AM
Dec 21
55 °FPassing clouds.20 mph31%30.24 "HgN/A
9:00 AM54 °FScattered clouds.21 mph33%30.18 "HgN/A
8:00 AM54 °FScattered clouds.15 mph35%30.18 "HgN/A
7:00 AM50 °FPartly cloudy.8 mph58%30.18 "HgN/A
6:00 AM45 °FPartly cloudy.7 mph93%30.15 "Hg5 mi
5:00 AM45 °FPassing clouds.6 mph93%30.12 "Hg5 mi
4:00 AM45 °FPartly cloudy.3 mph93%30.12 "Hg6 mi
3:00 AM45 °FPartly cloudy.5 mph93%30.12 "Hg6 mi
2:00 AM46 °FLight rain. Partly cloudy.7 mph87%30.12 "Hg5 mi
1:00 AM46 °FPartly cloudy.2 mph93%30.12 "HgN/A
12:00 AM46 °FLight rain. Partly cloudy.5 mph87%30.12 "Hg5 mi
11:00 PM
Dec 20
46 °FPartly cloudy.1 mph87%30.15 "Hg6 mi
10:00 PM45 °FPassing clouds.2 mph93%30.15 "Hg6 mi
9:00 PM45 °FPartly cloudy.3 mph93%30.15 "Hg6 mi
8:00 PM43 °FPassing clouds.2 mph93%30.15 "HgN/A
7:00 PM45 °FPassing clouds.3 mph93%30.15 "HgN/A
6:00 PM45 °FPassing clouds.2 mph87%30.15 "HgN/A
5:00 PM48 °FPassing clouds.2 mph76%30.15 "HgN/A
4:00 PM54 °FPassing clouds.2 mph67%30.15 "HgN/A
3:00 PM55 °FPassing clouds.1 mph63%30.15 "HgN/A
2:00 PM57 °FPassing clouds.2 mph59%30.15 "HgN/A
1:00 PM55 °FPassing clouds.2 mph63%30.18 "HgN/A
12:00 PM50 °FPassing clouds.2 mph71%30.21 "HgN/A
11:00 AM46 °FPassing clouds.2 mph76%30.24 "HgN/A
Weather by CustomWeather, © 2014

See weather overviewHow to use our weather pages